Time,TemperatureF,DewpointF,PressureIn,WindDirection,WindDirectionDegrees,WindSpeedMPH,WindSpeedGustMPH,Humidity,HourlyPrecipIn,Conditions,Clouds,dailyrainin,SoftwareType,DateUTC
2014-02-18 00:00:00,35.8,17.6,30.16,SE,135,5.0,8.0,47,0.00,,,0.00,meteohub,2014-02-18 05:00:00,
2014-02-18 00:01:00,35.8,17.6,30.16,SE,135,8.0,8.0,47,0.00,,,0.00,meteohub,2014-02-18 05:01:00,
2014-02-18 00:02:00,35.8,17.6,30.16,SSE,158,7.0,8.0,47,0.00,,,0.00,meteohub,2014-02-18 05:02:00,
2014-02-18 00:07:00,35.8,17.6,30.16,ESE,112,3.0,8.0,47,0.00,,,0.00,meteohub,2014-02-18 05:07:00,
2014-02-18 00:12:00,35.8,18.0,30.16,SE,135,3.0,8.0,48,0.00,,,0.00,meteohub,2014-02-18 05:12:00,
2014-02-18 00:17:00,35.8,18.0,30.16,SE,135,4.0,8.0,48,0.00,,,0.00,meteohub,2014-02-18 05:17:00,
2014-02-18 00:22:00,35.8,18.0,30.16,SSE,158,4.0,7.0,48,0.00,,,0.00,meteohub,2014-02-18 05:22:00,
2014-02-18 00:27:00,35.8,18.5,30.16,SE,135,3.0,7.0,49,0.00,,,0.00,meteohub,2014-02-18 05:27:00,
2014-02-18 00:32:00,35.8,18.5,30.16,SE,135,4.0,7.0,49,0.00,,,0.00,meteohub,2014-02-18 05:32:00,
2014-02-18 00:37:00,35.8,18.5,30.16,SE,135,5.0,6.0,49,0.00,,,0.00,meteohub,2014-02-18 05:37:00,
2014-02-18 00:42:00,35.6,18.3,30.16,SSE,158,4.0,6.0,49,0.00,,,0.00,meteohub,2014-02-18 05:42:00,
2014-02-18 00:47:00,35.6,18.9,30.16,South,180,2.0,6.0,50,0.00,,,0.00,meteohub,2014-02-18 05:47:00,
2014-02-18 00:52:00,35.6,18.9,30.16,SE,135,0.0,6.0,50,0.00,,,0.00,meteohub,2014-02-18 05:52:00,
2014-02-18 00:57:00,35.6,18.9,30.16,SW,225,0.0,4.0,50,0.00,,,0.00,meteohub,2014-02-18 05:57:00,
2014-02-18 01:02:00,35.8,19.0,30.16,West,270,3.0,4.0,50,0.00,,,0.00,meteohub,2014-02-18 06:02:00,
2014-02-18 01:08:00,35.8,19.0,30.16,West,270,0.0,4.0,50,0.00,,,0.00,meteohub,2014-02-18 06:08:00,
2014-02-18 01:13:00,36.0,19.0,30.19,West,270,2.0,4.0,50,0.00,,,0.00,meteohub,2014-02-18 06:13:00,
2014-02-18 01:18:00,36.0,19.0,30.19,West,270,0.0,4.0,50,0.00,,,0.00,meteohub,2014-02-18 06:18:00,
2014-02-18 01:23:00,36.0,20.1,30.19,West,270,0.0,3.0,52,0.00,,,0.00,meteohub,2014-02-18 06:23:00,
2014-02-18 01:28:00,35.8,20.3,30.16,West,270,0.0,3.0,53,0.00,,,0.00,meteohub,2014-02-18 06:28:00,
2014-02-18 01:33:00,35.4,20.8,30.16,West,270,0.0,0.0,55,0.00,,,0.00,meteohub,2014-02-18 06:33:00,
2014-02-18 01:38:00,35.2,21.9,30.16,West,270,0.0,0.0,58,0.00,,,0.00,meteohub,2014-02-18 06:38:00,
2014-02-18 01:43:00,35.1,22.6,30.16,West,270,0.0,2.0,60,0.00,,,0.00,meteohub,2014-02-18 06:43:00,
2014-02-18 01:48:00,35.1,23.0,30.16,West,270,0.0,2.0,61,0.00,,,0.00,meteohub,2014-02-18 06:48:00,
2014-02-18 01:53:00,35.1,23.7,30.16,West,270,0.0,2.0,63,0.00,,,0.00,meteohub,2014-02-18 06:53:00,
2014-02-18 01:58:00,35.1,24.4,30.19,West,270,0.0,2.0,65,0.00,,,0.00,meteohub,2014-02-18 06:58:00,
2014-02-18 02:03:00,35.1,24.8,30.19,West,270,0.0,2.0,66,0.00,,,0.00,meteohub,2014-02-18 07:03:00,
2014-02-18 02:08:00,34.9,25.0,30.19,West,270,0.0,2.0,67,0.00,,,0.00,meteohub,2014-02-18 07:08:00,
2014-02-18 02:13:00,34.9,25.3,30.16,West,270,2.0,0.0,68,0.00,,,0.00,meteohub,2014-02-18 07:13:00,
2014-02-18 02:18:00,35.1,25.5,30.16,West,270,0.0,3.0,68,0.00,,,0.00,meteohub,2014-02-18 07:18:00,
2014-02-18 02:23:00,34.9,25.0,30.16,West,270,0.0,3.0,67,0.00,,,0.00,meteohub,2014-02-18 07:23:00,
2014-02-18 02:28:00,34.9,25.0,30.13,West,270,0.0,3.0,67,0.00,,,0.00,meteohub,2014-02-18 07:28:00,
2014-02-18 02:33:00,34.9,24.6,30.13,West,270,0.0,0.0,66,0.00,,,0.00,meteohub,2014-02-18 07:33:00,
2014-02-18 02:38:00,34.9,24.6,30.13,West,270,0.0,0.0,66,0.00,,,0.00,meteohub,2014-02-18 07:38:00,
2014-02-18 02:43:00,35.1,24.8,30.13,West,270,0.0,0.0,66,0.00,,,0.00,meteohub,2014-02-18 07:43:00,
2014-02-18 02:48:00,35.1,24.8,30.13,West,270,0.0,0.0,66,0.00,,,0.00,meteohub,2014-02-18 07:48:00,
2014-02-18 02:53:00,35.1,24.8,30.13,West,270,0.0,0.0,66,0.00,,,0.00,meteohub,2014-02-18 07:53:00,
2014-02-18 02:58:00,35.1,24.8,30.13,West,270,0.0,3.0,66,0.00,,,0.00,meteohub,2014-02-18 07:58:00,
2014-02-18 03:03:00,34.9,24.6,30.13,ESE,112,4.0,4.0,66,0.00,,,0.00,meteohub,2014-02-18 08:03:00,
2014-02-18 03:08:00,34.9,24.6,30.13,East,90,0.0,4.0,66,0.00,,,0.00,meteohub,2014-02-18 08:08:00,
2014-02-18 03:13:00,34.9,24.3,30.10,NNE,22,0.0,5.0,65,0.00,,,0.00,meteohub,2014-02-18 08:13:00,
2014-02-18 03:18:00,35.1,24.8,30.10,NNE,22,0.0,5.0,66,0.00,,,0.00,meteohub,2014-02-18 08:18:00,
2014-02-18 03:23:00,35.1,24.4,30.10,NW,315,0.0,3.0,65,0.00,,,0.00,meteohub,2014-02-18 08:23:00,
2014-02-18 03:28:00,35.2,24.6,30.10,NW,315,0.0,0.0,65,0.00,,,0.00,meteohub,2014-02-18 08:28:00,
2014-02-18 03:32:00,35.1,24.4,30.10,NW,315,0.0,0.0,65,0.00,,,0.00,meteohub,2014-02-18 08:32:00,
2014-02-18 03:37:00,35.2,24.3,30.10,NW,315,0.0,3.0,64,0.00,,,0.00,meteohub,2014-02-18 08:37:00,
2014-02-18 03:42:00,35.2,23.9,30.10,NW,315,0.0,3.0,63,0.00,,,0.00,meteohub,2014-02-18 08:42:00,
2014-02-18 03:47:00,35.4,23.4,30.10,NW,315,3.0,3.0,61,0.00,,,0.00,meteohub,2014-02-18 08:47:00,
2014-02-18 03:52:00,35.4,23.4,30.10,NW,315,3.0,3.0,61,0.00,,,0.00,meteohub,2014-02-18 08:52:00,
2014-02-18 03:57:00,35.4,23.0,30.10,NW,315,0.0,4.0,60,0.00,,,0.00,meteohub,2014-02-18 08:57:00,
2014-02-18 04:02:00,35.6,22.6,30.10,NW,315,0.0,4.0,59,0.00,,,0.00,meteohub,2014-02-18 09:02:00,
2014-02-18 04:07:00,35.6,22.6,30.10,NW,315,0.0,4.0,59,0.00,,,0.00,meteohub,2014-02-18 09:07:00,
2014-02-18 04:13:00,35.6,22.3,30.10,NW,315,0.0,0.0,58,0.00,,,0.00,meteohub,2014-02-18 09:13:00,
2014-02-18 04:18:00,35.6,21.9,30.10,NW,315,0.0,0.0,57,0.00,,,0.00,meteohub,2014-02-18 09:18:00,
2014-02-18 04:23:00,35.8,22.5,30.10,NW,315,0.0,0.0,58,0.00,,,0.00,meteohub,2014-02-18 09:23:00,
2014-02-18 04:28:00,35.8,22.5,30.13,NW,315,0.0,0.0,58,0.00,,,0.00,meteohub,2014-02-18 09:28:00,
2014-02-18 04:33:00,35.8,22.8,30.13,NW,315,0.0,0.0,59,0.00,,,0.00,meteohub,2014-02-18 09:33:00,
2014-02-18 04:38:00,35.8,22.8,30.13,NW,315,0.0,0.0,59,0.00,,,0.00,meteohub,2014-02-18 09:38:00,
2014-02-18 04:43:00,35.8,22.8,30.13,NW,315,0.0,0.0,59,0.00,,,0.00,meteohub,2014-02-18 09:43:00,
2014-02-18 04:48:00,35.8,22.8,30.13,NE,45,2.0,0.0,59,0.00,,,0.00,meteohub,2014-02-18 09:48:00,
2014-02-18 04:53:00,35.8,22.8,30.13,NNE,22,0.0,4.0,59,0.00,,,0.00,meteohub,2014-02-18 09:53:00,
2014-02-18 04:58:00,35.8,22.8,30.13,NNE,22,0.0,4.0,59,0.00,,,0.00,meteohub,2014-02-18 09:58:00,
2014-02-18 05:03:00,35.8,22.8,30.13,NNE,22,0.0,4.0,59,0.00,,,0.00,meteohub,2014-02-18 10:03:00,
2014-02-18 05:08:00,35.8,22.8,30.13,NNE,22,0.0,3.0,59,0.00,,,0.00,meteohub,2014-02-18 10:08:00,
2014-02-18 05:13:00,35.8,22.8,30.13,NNE,22,0.0,3.0,59,0.00,,,0.00,meteohub,2014-02-18 10:13:00,
2014-02-18 05:18:00,35.8,22.8,30.13,NNE,22,0.0,0.0,59,0.00,,,0.00,meteohub,2014-02-18 10:18:00,
2014-02-18 05:23:00,35.8,22.8,30.13,NNE,22,0.0,0.0,59,0.00,,,0.00,meteohub,2014-02-18 10:23:00,
2014-02-18 05:28:00,35.8,22.8,30.13,NNE,22,0.0,0.0,59,0.00,,,0.00,meteohub,2014-02-18 10:28:00,
2014-02-18 05:33:00,35.8,22.8,30.13,NNE,22,0.0,0.0,59,0.00,,,0.00,meteohub,2014-02-18 10:33:00,
2014-02-18 05:38:00,35.8,22.8,30.13,NNE,22,0.0,0.0,59,0.00,,,0.00,meteohub,2014-02-18 10:38:00,
2014-02-18 05:43:00,35.8,22.8,30.13,NNE,22,0.0,0.0,59,0.00,,,0.00,meteohub,2014-02-18 10:43:00,
2014-02-18 05:46:00,35.8,22.8,30.13,NNE,22,0.0,0.0,59,0.00,,,0.00,meteohub,2014-02-18 10:46:00,
2014-02-18 05:51:00,35.8,22.8,30.13,NNE,22,0.0,0.0,59,0.00,,,0.00,meteohub,2014-02-18 10:51:00,
2014-02-18 05:56:00,35.8,22.8,30.13,NNE,22,0.0,0.0,59,0.00,,,0.00,meteohub,2014-02-18 10:56:00,
2014-02-18 06:01:00,35.8,22.8,30.13,NNE,22,0.0,0.0,59,0.00,,,0.00,meteohub,2014-02-18 11:01:00,
2014-02-18 06:06:00,36.0,23.0,30.13,NNE,22,0.0,0.0,59,0.00,,,0.00,meteohub,2014-02-18 11:06:00,
2014-02-18 06:11:00,36.0,23.0,30.13,NNE,22,0.0,0.0,59,0.00,,,0.00,meteohub,2014-02-18 11:11:00,
2014-02-18 06:16:00,36.0,23.4,30.13,NNE,22,0.0,0.0,60,0.00,,,0.00,meteohub,2014-02-18 11:16:00,
2014-02-18 06:21:00,36.1,23.2,30.13,NNE,22,0.0,0.0,59,0.00,,,0.00,meteohub,2014-02-18 11:21:00,
2014-02-18 06:26:00,36.1,23.2,30.13,NNE,22,0.0,0.0,59,0.00,,,0.00,meteohub,2014-02-18 11:26:00,
2014-02-18 06:31:00,36.3,23.4,30.13,NNE,22,0.0,0.0,59,0.00,,,0.00,meteohub,2014-02-18 11:31:00,
2014-02-18 06:36:00,36.3,23.4,30.13,NNE,22,0.0,0.0,59,0.00,,,0.00,meteohub,2014-02-18 11:36:00,
2014-02-18 06:41:00,36.3,23.7,30.16,NNE,22,0.0,0.0,60,0.00,,,0.00,meteohub,2014-02-18 11:41:00,
2014-02-18 06:47:00,36.3,23.7,30.16,NNE,22,0.0,0.0,60,0.00,,,0.00,meteohub,2014-02-18 11:47:00,
2014-02-18 06:52:00,36.5,23.9,30.16,NNE,22,0.0,0.0,60,0.00,,,0.00,meteohub,2014-02-18 11:52:00,
2014-02-18 06:57:00,36.5,23.5,30.16,NNE,22,0.0,0.0,59,0.00,,,0.00,meteohub,2014-02-18 11:57:00,
2014-02-18 07:02:00,36.7,23.7,30.16,NNE,22,0.0,0.0,59,0.00,,,0.00,meteohub,2014-02-18 12:02:00,
2014-02-18 07:07:00,36.7,23.7,30.16,NNE,22,0.0,0.0,59,0.00,,,0.00,meteohub,2014-02-18 12:07:00,
2014-02-18 07:12:00,36.7,23.7,30.16,NNE,22,0.0,0.0,59,0.00,,,0.00,meteohub,2014-02-18 12:12:00,
2014-02-18 07:17:00,36.7,23.7,30.16,NNE,22,0.0,0.0,59,0.00,,,0.00,meteohub,2014-02-18 12:17:00,
2014-02-18 07:22:00,36.7,23.7,30.16,NNE,22,0.0,0.0,59,0.00,,,0.00,meteohub,2014-02-18 12:22:00,
2014-02-18 07:27:00,36.9,24.3,30.16,NNE,22,0.0,0.0,60,0.00,,,0.00,meteohub,2014-02-18 12:27:00,
2014-02-18 07:32:00,36.9,24.3,30.16,NNE,22,0.0,0.0,60,0.00,,,0.00,meteohub,2014-02-18 12:32:00,
2014-02-18 07:37:00,37.0,24.4,30.16,NNW,338,0.0,0.0,60,0.00,,,0.00,meteohub,2014-02-18 12:37:00,
2014-02-18 07:42:00,37.2,23.7,30.16,NNW,338,3.0,0.0,58,0.00,,,0.00,meteohub,2014-02-18 12:42:00,
2014-02-18 07:47:00,37.4,23.5,30.16,NNW,338,3.0,4.0,57,0.00,,,0.00,meteohub,2014-02-18 12:47:00,
2014-02-18 07:52:00,37.6,23.4,30.16,NNW,338,4.0,4.0,56,0.00,,,0.00,meteohub,2014-02-18 12:52:00,
2014-02-18 07:57:00,37.9,23.7,30.19,NNW,338,2.0,4.0,56,0.00,,,0.00,meteohub,2014-02-18 12:57:00,
2014-02-18 08:02:00,37.9,23.2,30.19,NNW,338,2.0,4.0,55,0.00,,,0.00,meteohub,2014-02-18 13:02:00,
2014-02-18 08:07:00,38.1,23.4,30.19,NNW,338,2.0,4.0,55,0.00,,,0.00,meteohub,2014-02-18 13:07:00,
2014-02-18 08:12:00,38.5,23.7,30.19,NNW,338,2.0,4.0,55,0.00,,,0.00,meteohub,2014-02-18 13:12:00,
2014-02-18 08:17:00,38.8,23.5,30.19,NNW,338,0.0,4.0,54,0.00,,,0.00,meteohub,2014-02-18 13:17:00,
2014-02-18 08:22:00,39.2,23.5,30.19,NNW,338,3.0,4.0,53,0.00,,,0.00,meteohub,2014-02-18 13:22:00,
2014-02-18 08:27:00,39.7,24.1,30.19,NNW,338,3.0,4.0,53,0.00,,,0.00,meteohub,2014-02-18 13:27:00,
2014-02-18 08:32:00,39.9,23.7,30.19,NNW,338,4.0,5.0,52,0.00,,,0.00,meteohub,2014-02-18 13:32:00,
2014-02-18 08:37:00,40.5,24.3,30.19,SW,225,5.0,5.0,52,0.00,,,0.00,meteohub,2014-02-18 13:37:00,
2014-02-18 08:42:00,41.0,24.3,30.19,WNW,292,4.0,6.0,51,0.00,,,0.00,meteohub,2014-02-18 13:42:00,
2014-02-18 08:47:00,41.5,24.8,30.19,WSW,248,4.0,7.0,51,0.00,,,0.00,meteohub,2014-02-18 13:47:00,
2014-02-18 08:52:00,42.3,25.0,30.19,WSW,248,4.0,7.0,50,0.00,,,0.00,meteohub,2014-02-18 13:52:00,
2014-02-18 08:57:00,42.6,25.7,30.19,West,270,6.0,8.0,51,0.00,,,0.00,meteohub,2014-02-18 13:57:00,
2014-02-18 09:02:00,43.0,25.7,30.19,WSW,248,3.0,8.0,50,0.00,,,0.00,meteohub,2014-02-18 14:02:00,
2014-02-18 09:07:00,43.5,26.1,30.19,WNW,292,4.0,8.0,50,0.00,,,0.00,meteohub,2014-02-18 14:07:00,
2014-02-18 09:12:00,44.1,26.1,30.19,West,270,4.0,8.0,49,0.00,,,0.00,meteohub,2014-02-18 14:12:00,
2014-02-18 09:17:00,44.6,26.6,30.19,WSW,248,5.0,9.0,49,0.00,,,0.00,meteohub,2014-02-18 14:17:00,
2014-02-18 09:22:00,44.8,26.2,30.19,WNW,292,5.0,9.0,48,0.00,,,0.00,meteohub,2014-02-18 14:22:00,
2014-02-18 09:27:00,45.5,26.4,30.19,WSW,248,4.0,9.0,47,0.00,,,0.00,meteohub,2014-02-18 14:27:00,
2014-02-18 09:32:00,45.5,25.3,30.19,WSW,248,5.0,8.0,45,0.00,,,0.00,meteohub,2014-02-18 14:32:00,
2014-02-18 09:37:00,46.2,25.5,30.19,WSW,248,5.0,8.0,44,0.00,,,0.00,meteohub,2014-02-18 14:37:00,
2014-02-18 09:42:00,46.2,25.0,30.19,WNW,292,6.0,9.0,43,0.00,,,0.00,meteohub,2014-02-18 14:42:00,
2014-02-18 09:47:00,46.8,25.5,30.19,North,0,2.0,9.0,43,0.00,,,0.00,meteohub,2014-02-18 14:47:00,
2014-02-18 09:52:00,47.7,25.2,30.19,SSW,202,6.0,9.0,41,0.00,,,0.00,meteohub,2014-02-18 14:52:00,
2014-02-18 09:57:00,47.8,24.6,30.19,WSW,248,4.0,8.0,40,0.00,,,0.00,meteohub,2014-02-18 14:57:00,
2014-02-18 10:02:00,48.6,24.8,30.19,West,270,4.0,8.0,39,0.00,,,0.00,meteohub,2014-02-18 15:02:00,
2014-02-18 10:07:00,49.1,25.2,30.19,NNW,338,3.0,7.0,39,0.00,,,0.00,meteohub,2014-02-18 15:07:00,
2014-02-18 10:12:00,49.8,25.2,30.19,West,270,2.0,7.0,38,0.00,,,0.00,meteohub,2014-02-18 15:12:00,
2014-02-18 10:17:00,50.2,25.5,30.19,West,270,3.0,6.0,38,0.00,,,0.00,meteohub,2014-02-18 15:17:00,
2014-02-18 10:22:00,50.4,25.0,30.19,West,270,3.0,7.0,37,0.00,,,0.00,meteohub,2014-02-18 15:22:00,
2014-02-18 10:27:00,50.9,24.8,30.19,West,270,3.0,7.0,36,0.00,,,0.00,meteohub,2014-02-18 15:27:00,
2014-02-18 10:32:00,51.3,25.2,30.19,WNW,292,6.0,7.0,36,0.00,,,0.00,meteohub,2014-02-18 15:32:00,
2014-02-18 10:37:00,51.4,25.3,30.19,WSW,248,8.0,8.0,36,0.00,,,0.00,meteohub,2014-02-18 15:37:00,
2014-02-18 10:42:00,52.0,24.4,30.19,WSW,248,5.0,8.0,34,0.00,,,0.00,meteohub,2014-02-18 15:42:00,
2014-02-18 10:47:00,52.2,24.6,30.19,West,270,5.0,8.0,34,0.00,,,0.00,meteohub,2014-02-18 15:47:00,
2014-02-18 10:52:00,52.3,25.5,30.19,WSW,248,5.0,8.0,35,0.00,,,0.00,meteohub,2014-02-18 15:52:00,
2014-02-18 10:57:00,52.7,24.4,30.19,West,270,3.0,8.0,33,0.00,,,0.00,meteohub,2014-02-18 15:57:00,
2014-02-18 11:02:00,53.2,23.4,30.19,WSW,248,4.0,7.0,31,0.00,,,0.00,meteohub,2014-02-18 16:02:00,
2014-02-18 11:07:00,53.4,23.5,30.19,WSW,248,5.0,9.0,31,0.00,,,0.00,meteohub,2014-02-18 16:07:00,
2014-02-18 11:12:00,54.1,23.4,30.19,WNW,292,6.0,9.0,30,0.00,,,0.00,meteohub,2014-02-18 16:12:00,
2014-02-18 11:17:00,54.5,22.1,30.19,West,270,5.0,8.0,28,0.00,,,0.00,meteohub,2014-02-18 16:17:00,
2014-02-18 11:22:00,55.4,21.9,30.19,North,0,2.0,10.0,27,0.00,,,0.00,meteohub,2014-02-18 16:22:00,
2014-02-18 11:27:00,55.8,22.3,30.16,WNW,292,6.0,10.0,27,0.00,,,0.00,meteohub,2014-02-18 16:27:00,
2014-02-18 11:32:00,55.8,21.4,30.16,WSW,248,4.0,10.0,26,0.00,,,0.00,meteohub,2014-02-18 16:32:00,
2014-02-18 11:37:00,56.5,21.9,30.16,WNW,292,4.0,9.0,26,0.00,,,0.00,meteohub,2014-02-18 16:37:00,
2014-02-18 11:42:00,57.2,21.7,30.16,WSW,248,4.0,9.0,25,0.00,,,0.00,meteohub,2014-02-18 16:42:00,
2014-02-18 11:47:00,58.1,22.5,30.16,WSW,248,5.0,8.0,25,0.00,,,0.00,meteohub,2014-02-18 16:47:00,
2014-02-18 11:52:00,59.2,23.4,30.16,WNW,292,4.0,8.0,25,0.00,,,0.00,meteohub,2014-02-18 16:52:00,
2014-02-18 11:57:00,58.8,23.0,30.16,West,270,2.0,8.0,25,0.00,,,0.00,meteohub,2014-02-18 16:57:00,
2014-02-18 12:02:00,59.7,22.8,30.16,WNW,292,0.0,8.0,24,0.00,,,0.00,meteohub,2014-02-18 17:02:00,
2014-02-18 12:07:00,60.4,23.5,30.16,West,270,5.0,8.0,24,0.00,,,0.00,meteohub,2014-02-18 17:07:00,
2014-02-18 12:12:00,60.6,23.5,30.16,East,90,3.0,8.0,24,0.00,,,0.00,meteohub,2014-02-18 17:12:00,
2014-02-18 12:17:00,60.4,23.5,30.16,West,270,4.0,8.0,24,0.00,,,0.00,meteohub,2014-02-18 17:17:00,
2014-02-18 12:22:00,60.4,21.4,30.16,West,270,4.0,11.0,22,0.00,,,0.00,meteohub,2014-02-18 17:22:00,
2014-02-18 12:27:00,61.2,20.8,30.16,NNW,338,3.0,11.0,21,0.00,,,0.00,meteohub,2014-02-18 17:27:00,
2014-02-18 12:32:00,61.3,21.0,30.16,WSW,248,5.0,11.0,21,0.00,,,0.00,meteohub,2014-02-18 17:32:00,
2014-02-18 12:37:00,61.0,20.8,30.16,WNW,292,5.0,11.0,21,0.00,,,0.00,meteohub,2014-02-18 17:37:00,
2014-02-18 12:42:00,61.3,21.0,30.13,WSW,248,8.0,9.0,21,0.00,,,0.00,meteohub,2014-02-18 17:42:00,
2014-02-18 12:47:00,61.9,19.2,30.13,WNW,292,4.0,11.0,19,0.00,,,0.00,meteohub,2014-02-18 17:47:00,
2014-02-18 12:52:00,63.1,18.9,30.13,West,270,5.0,11.0,18,0.00,,,0.00,meteohub,2014-02-18 17:52:00,
2014-02-18 12:57:00,63.7,19.4,30.13,NW,315,3.0,8.0,18,0.00,,,0.00,meteohub,2014-02-18 17:57:00,
2014-02-18 13:02:00,63.0,18.9,30.13,WNW,292,3.0,8.0,18,0.00,,,0.00,meteohub,2014-02-18 18:02:00,
2014-02-18 13:07:00,64.0,19.6,30.13,West,270,3.0,10.0,18,0.00,,,0.00,meteohub,2014-02-18 18:07:00,
2014-02-18 13:13:00,63.1,18.9,30.13,West,270,6.0,10.0,18,0.00,,,0.00,meteohub,2014-02-18 18:13:00,
2014-02-18 13:18:00,63.3,19.0,30.13,WNW,292,6.0,10.0,18,0.00,,,0.00,meteohub,2014-02-18 18:18:00,
2014-02-18 13:23:00,64.6,20.1,30.13,WSW,248,2.0,9.0,18,0.00,,,0.00,meteohub,2014-02-18 18:23:00,
2014-02-18 13:28:00,64.8,20.3,30.13,NNE,22,5.0,9.0,18,0.00,,,0.00,meteohub,2014-02-18 18:28:00,
2014-02-18 13:33:00,65.3,20.7,30.13,NE,45,4.0,10.0,18,0.00,,,0.00,meteohub,2014-02-18 18:33:00,
2014-02-18 13:38:00,64.6,20.1,30.13,ENE,68,8.0,10.0,18,0.00,,,0.00,meteohub,2014-02-18 18:38:00,
2014-02-18 13:43:00,65.5,20.8,30.13,West,270,3.0,11.0,18,0.00,,,0.00,meteohub,2014-02-18 18:43:00,
2014-02-18 13:48:00,63.5,19.2,30.13,WSW,248,5.0,11.0,18,0.00,,,0.00,meteohub,2014-02-18 18:48:00,
2014-02-18 13:53:00,64.8,20.3,30.13,SSE,158,4.0,11.0,18,0.00,,,0.00,meteohub,2014-02-18 18:53:00,
2014-02-18 13:58:00,66.0,21.2,30.13,WSW,248,4.0,11.0,18,0.00,,,0.00,meteohub,2014-02-18 18:58:00,
2014-02-18 14:03:00,65.7,21.0,30.13,NNW,338,5.0,12.0,18,0.00,,,0.00,meteohub,2014-02-18 19:03:00,
2014-02-18 14:08:00,66.4,20.3,30.13,WSW,248,6.0,12.0,17,0.00,,,0.00,meteohub,2014-02-18 19:08:00,
2014-02-18 14:13:00,65.8,21.2,30.13,West,270,4.0,12.0,18,0.00,,,0.00,meteohub,2014-02-18 19:13:00,
2014-02-18 14:18:00,66.0,21.2,30.13,WNW,292,3.0,8.0,18,0.00,,,0.00,meteohub,2014-02-18 19:18:00,
2014-02-18 14:23:00,67.6,21.2,30.13,WNW,292,4.0,8.0,17,0.00,,,0.00,meteohub,2014-02-18 19:23:00,
2014-02-18 14:28:00,66.0,21.2,30.13,WSW,248,4.0,8.0,18,0.00,,,0.00,meteohub,2014-02-18 19:28:00,
2014-02-18 14:33:00,67.1,20.8,30.13,WNW,292,4.0,9.0,17,0.00,,,0.00,meteohub,2014-02-18 19:33:00,
2014-02-18 14:38:00,66.4,20.3,30.13,SE,135,6.0,9.0,17,0.00,,,0.00,meteohub,2014-02-18 19:38:00,
2014-02-18 14:43:00,64.9,20.5,30.10,WSW,248,11.0,11.0,18,0.00,,,0.00,meteohub,2014-02-18 19:43:00,
2014-02-18 14:48:00,65.3,20.7,30.10,NNW,338,3.0,11.0,18,0.00,,,0.00,meteohub,2014-02-18 19:48:00,
2014-02-18 14:53:00,64.6,20.1,30.10,WNW,292,8.0,11.0,18,0.00,,,0.00,meteohub,2014-02-18 19:53:00,
2014-02-18 14:58:00,64.9,20.5,30.10,WNW,292,6.0,11.0,18,0.00,,,0.00,meteohub,2014-02-18 19:58:00,
2014-02-18 15:03:00,65.3,20.7,30.10,West,270,5.0,11.0,18,0.00,,,0.00,meteohub,2014-02-18 20:03:00,
2014-02-18 15:08:00,66.0,21.2,30.10,West,270,4.0,11.0,18,0.00,,,0.00,meteohub,2014-02-18 20:08:00,
2014-02-18 15:13:00,67.5,21.2,30.10,WSW,248,7.0,10.0,17,0.00,,,0.00,meteohub,2014-02-18 20:13:00,
2014-02-18 15:18:00,66.4,20.3,30.10,WNW,292,4.0,10.0,17,0.00,,,0.00,meteohub,2014-02-18 20:18:00,
2014-02-18 15:23:00,67.6,21.2,30.10,SW,225,4.0,8.0,17,0.00,,,0.00,meteohub,2014-02-18 20:23:00,
2014-02-18 15:28:00,67.6,21.2,30.10,WSW,248,3.0,8.0,17,0.00,,,0.00,meteohub,2014-02-18 20:28:00,
2014-02-18 15:33:00,68.0,21.6,30.10,NNW,338,0.0,6.0,17,0.00,,,0.00,meteohub,2014-02-18 20:33:00,
2014-02-18 15:38:00,65.8,21.2,30.10,ENE,68,5.0,7.0,18,0.00,,,0.00,meteohub,2014-02-18 20:38:00,
2014-02-18 15:43:00,66.7,20.5,30.10,NE,45,3.0,9.0,17,0.00,,,0.00,meteohub,2014-02-18 20:43:00,
2014-02-18 15:48:00,67.8,21.4,30.10,WSW,248,4.0,9.0,17,0.00,,,0.00,meteohub,2014-02-18 20:48:00,
2014-02-18 15:53:00,66.4,20.3,30.10,NNW,338,0.0,8.0,17,0.00,,,0.00,meteohub,2014-02-18 20:53:00,
2014-02-18 15:58:00,67.1,20.8,30.10,WNW,292,3.0,6.0,17,0.00,,,0.00,meteohub,2014-02-18 20:58:00,
2014-02-18 16:03:00,65.8,21.2,30.10,WNW,292,5.0,6.0,18,0.00,,,0.00,meteohub,2014-02-18 21:03:00,
2014-02-18 16:08:00,65.5,20.8,30.10,West,270,5.0,6.0,18,0.00,,,0.00,meteohub,2014-02-18 21:08:00,
2014-02-18 16:13:00,65.8,21.2,30.10,NNW,338,0.0,8.0,18,0.00,,,0.00,meteohub,2014-02-18 21:13:00,
2014-02-18 16:18:00,66.0,21.2,30.10,WSW,248,5.0,8.0,18,0.00,,,0.00,meteohub,2014-02-18 21:18:00,
2014-02-18 16:23:00,66.0,21.2,30.10,West,270,6.0,8.0,18,0.00,,,0.00,meteohub,2014-02-18 21:23:00,
2014-02-18 16:28:00,65.8,21.2,30.10,West,270,6.0,6.0,18,0.00,,,0.00,meteohub,2014-02-18 21:28:00,
2014-02-18 16:33:00,66.0,21.2,30.10,WNW,292,6.0,6.0,18,0.00,,,0.00,meteohub,2014-02-18 21:33:00,
2014-02-18 16:38:00,65.3,20.7,30.10,WSW,248,4.0,6.0,18,0.00,,,0.00,meteohub,2014-02-18 21:38:00,
2014-02-18 16:44:00,66.4,20.3,30.10,WNW,292,3.0,6.0,17,0.00,,,0.00,meteohub,2014-02-18 21:44:00,
2014-02-18 16:49:00,66.6,20.3,30.10,NNW,338,0.0,6.0,17,0.00,,,0.00,meteohub,2014-02-18 21:49:00,
2014-02-18 16:54:00,65.8,21.2,30.10,West,270,3.0,6.0,18,0.00,,,0.00,meteohub,2014-02-18 21:54:00,
2014-02-18 16:59:00,65.8,21.2,30.10,West,270,3.0,5.0,18,0.00,,,0.00,meteohub,2014-02-18 21:59:00,
2014-02-18 17:04:00,65.8,21.2,30.10,West,270,0.0,5.0,18,0.00,,,0.00,meteohub,2014-02-18 22:04:00,
2014-02-18 17:09:00,63.9,19.6,30.10,WSW,248,4.0,5.0,18,0.00,,,0.00,meteohub,2014-02-18 22:09:00,
2014-02-18 17:14:00,63.3,19.0,30.10,West,270,3.0,8.0,18,0.00,,,0.00,meteohub,2014-02-18 22:14:00,
2014-02-18 17:19:00,63.1,18.9,30.10,West,270,3.0,8.0,18,0.00,,,0.00,meteohub,2014-02-18 22:19:00,
2014-02-18 17:23:00,62.8,18.7,30.10,WSW,248,4.0,8.0,18,0.00,,,0.00,meteohub,2014-02-18 22:23:00,
2014-02-18 17:28:00,61.7,19.0,30.10,NNW,338,0.0,4.0,19,0.00,,,0.00,meteohub,2014-02-18 22:28:00,
2014-02-18 17:33:00,60.6,18.1,30.10,WNW,292,0.0,6.0,19,0.00,,,0.00,meteohub,2014-02-18 22:33:00,
2014-02-18 17:38:00,59.5,17.2,30.10,WNW,292,0.0,6.0,19,0.00,,,0.00,meteohub,2014-02-18 22:38:00,
2014-02-18 17:43:00,58.5,16.3,30.10,WNW,292,0.0,5.0,19,0.00,,,0.00,meteohub,2014-02-18 22:43:00,
2014-02-18 17:48:00,56.8,16.2,30.10,WNW,292,0.0,4.0,20,0.00,,,0.00,meteohub,2014-02-18 22:48:00,
2014-02-18 17:53:00,55.8,15.3,30.10,WNW,292,0.0,0.0,20,0.00,,,0.00,meteohub,2014-02-18 22:53:00,
2014-02-18 17:58:00,54.5,14.2,30.10,WNW,292,0.0,0.0,20,0.00,,,0.00,meteohub,2014-02-18 22:58:00,
2014-02-18 18:03:00,53.4,14.4,30.10,WNW,292,0.0,3.0,21,0.00,,,0.00,meteohub,2014-02-18 23:03:00,
2014-02-18 18:08:00,52.7,13.8,30.10,WNW,292,0.0,3.0,21,0.00,,,0.00,meteohub,2014-02-18 23:08:00,
2014-02-18 18:13:00,52.0,13.3,30.10,WNW,292,0.0,2.0,21,0.00,,,0.00,meteohub,2014-02-18 23:13:00,
2014-02-18 18:18:00,51.1,12.6,30.10,WNW,292,0.0,3.0,21,0.00,,,0.00,meteohub,2014-02-18 23:18:00,
2014-02-18 18:23:00,50.4,11.8,30.10,WNW,292,0.0,3.0,21,0.00,,,0.00,meteohub,2014-02-18 23:23:00,
2014-02-18 18:29:00,49.8,14.5,30.10,WNW,292,0.0,0.0,24,0.00,,,0.00,meteohub,2014-02-18 23:29:00,
2014-02-18 18:34:00,48.9,13.6,30.10,WNW,292,0.0,0.0,24,0.00,,,0.00,meteohub,2014-02-18 23:34:00,
2014-02-18 18:39:00,48.6,13.5,30.10,WNW,292,0.0,0.0,24,0.00,,,0.00,meteohub,2014-02-18 23:39:00,
2014-02-18 18:44:00,48.4,13.3,30.13,WNW,292,0.0,3.0,24,0.00,,,0.00,meteohub,2014-02-18 23:44:00,
2014-02-18 18:49:00,47.8,12.7,30.13,WNW,292,0.0,3.0,24,0.00,,,0.00,meteohub,2014-02-18 23:49:00,
2014-02-18 18:54:00,47.3,15.1,30.13,WNW,292,0.0,3.0,27,0.00,,,0.00,meteohub,2014-02-18 23:54:00,
2014-02-18 18:59:00,46.9,14.7,30.13,WNW,292,0.0,0.0,27,0.00,,,0.00,meteohub,2014-02-18 23:59:00,
2014-02-18 19:04:00,46.6,14.4,30.13,WNW,292,0.0,0.0,27,0.00,,,0.00,meteohub,2014-02-19 00:04:00,
2014-02-18 19:09:00,46.2,14.0,30.13,WNW,292,0.0,0.0,27,0.00,,,0.00,meteohub,2014-02-19 00:09:00,
2014-02-18 19:14:00,45.9,14.5,30.13,WNW,292,0.0,0.0,28,0.00,,,0.00,meteohub,2014-02-19 00:14:00,
2014-02-18 19:19:00,45.3,14.2,30.13,WNW,292,0.0,0.0,28,0.00,,,0.00,meteohub,2014-02-19 00:19:00,
2014-02-18 19:24:00,44.6,13.5,30.13,WNW,292,0.0,0.0,28,0.00,,,0.00,meteohub,2014-02-19 00:24:00,
2014-02-18 19:29:00,44.6,13.5,30.13,WNW,292,0.0,0.0,28,0.00,,,0.00,meteohub,2014-02-19 00:29:00,
2014-02-18 19:34:00,43.9,12.9,30.13,WNW,292,0.0,0.0,28,0.00,,,0.00,meteohub,2014-02-19 00:34:00,
2014-02-18 19:39:00,43.7,13.5,30.13,WNW,292,0.0,0.0,29,0.00,,,0.00,meteohub,2014-02-19 00:39:00,
2014-02-18 19:44:00,43.3,13.3,30.10,WNW,292,0.0,0.0,29,0.00,,,0.00,meteohub,2014-02-19 00:44:00,
2014-02-18 19:49:00,43.0,12.9,30.10,WNW,292,0.0,0.0,29,0.00,,,0.00,meteohub,2014-02-19 00:49:00,
2014-02-18 19:54:00,42.8,12.7,30.10,WNW,292,0.0,0.0,29,0.00,,,0.00,meteohub,2014-02-19 00:54:00,
2014-02-18 19:59:00,42.8,13.5,30.10,WNW,292,0.0,0.0,30,0.00,,,0.00,meteohub,2014-02-19 00:59:00,
2014-02-18 20:04:00,42.4,13.1,30.10,WNW,292,0.0,0.0,30,0.00,,,0.00,meteohub,2014-02-19 01:04:00,
2014-02-18 20:09:00,42.4,13.1,30.10,WNW,292,0.0,0.0,30,0.00,,,0.00,meteohub,2014-02-19 01:09:00,
2014-02-18 20:14:00,42.4,13.1,30.10,WNW,292,0.0,0.0,30,0.00,,,0.00,meteohub,2014-02-19 01:14:00,
2014-02-18 20:19:00,42.6,14.0,30.10,WNW,292,0.0,0.0,31,0.00,,,0.00,meteohub,2014-02-19 01:19:00,
2014-02-18 20:24:00,42.6,13.3,30.10,WNW,292,0.0,0.0,30,0.00,,,0.00,meteohub,2014-02-19 01:24:00,
2014-02-18 20:29:00,42.3,13.1,30.10,WNW,292,0.0,0.0,30,0.00,,,0.00,meteohub,2014-02-19 01:29:00,
2014-02-18 20:35:00,42.3,13.8,30.10,WNW,292,0.0,0.0,31,0.00,,,0.00,meteohub,2014-02-19 01:35:00,
2014-02-18 20:40:00,42.3,15.3,30.10,WNW,292,0.0,0.0,33,0.00,,,0.00,meteohub,2014-02-19 01:40:00,
2014-02-18 20:45:00,42.1,15.1,30.10,WNW,292,0.0,0.0,33,0.00,,,0.00,meteohub,2014-02-19 01:45:00,
2014-02-18 20:50:00,41.7,15.4,30.10,WNW,292,0.0,0.0,34,0.00,,,0.00,meteohub,2014-02-19 01:50:00,
2014-02-18 20:55:00,42.1,15.8,30.10,WNW,292,0.0,0.0,34,0.00,,,0.00,meteohub,2014-02-19 01:55:00,
2014-02-18 21:00:00,41.9,16.2,30.10,WNW,292,0.0,0.0,35,0.00,,,0.00,meteohub,2014-02-19 02:00:00,
2014-02-18 21:05:00,41.5,16.5,30.10,WNW,292,0.0,0.0,36,0.00,,,0.00,meteohub,2014-02-19 02:05:00,
2014-02-18 21:10:00,41.2,16.9,30.10,WNW,292,0.0,0.0,37,0.00,,,0.00,meteohub,2014-02-19 02:10:00,
2014-02-18 21:15:00,41.2,16.2,30.10,WNW,292,0.0,0.0,36,0.00,,,0.00,meteohub,2014-02-19 02:15:00,
2014-02-18 21:20:00,41.4,15.8,30.10,WNW,292,0.0,0.0,35,0.00,,,0.00,meteohub,2014-02-19 02:20:00,
2014-02-18 21:25:00,41.2,16.2,30.10,WNW,292,0.0,0.0,36,0.00,,,0.00,meteohub,2014-02-19 02:25:00,
2014-02-18 21:30:00,41.2,17.4,30.10,WNW,292,0.0,0.0,38,0.00,,,0.00,meteohub,2014-02-19 02:30:00,
2014-02-18 21:35:00,41.0,18.0,30.10,WNW,292,0.0,0.0,39,0.00,,,0.00,meteohub,2014-02-19 02:35:00,
2014-02-18 21:40:00,40.8,17.8,30.10,WNW,292,0.0,0.0,39,0.00,,,0.00,meteohub,2014-02-19 02:40:00,
2014-02-18 21:45:00,40.8,17.8,30.10,WNW,292,0.0,0.0,39,0.00,,,0.00,meteohub,2014-02-19 02:45:00,
2014-02-18 21:50:00,40.8,18.3,30.10,WNW,292,0.0,0.0,40,0.00,,,0.00,meteohub,2014-02-19 02:50:00,
2014-02-18 21:55:00,41.0,18.0,30.10,WNW,292,0.0,0.0,39,0.00,,,0.00,meteohub,2014-02-19 02:55:00,
2014-02-18 22:00:00,40.8,17.8,30.10,WNW,292,0.0,0.0,39,0.00,,,0.00,meteohub,2014-02-19 03:00:00,
2014-02-18 22:05:00,41.0,18.0,30.10,WNW,292,0.0,0.0,39,0.00,,,0.00,meteohub,2014-02-19 03:05:00,
2014-02-18 22:10:00,40.6,17.6,30.10,WNW,292,0.0,0.0,39,0.00,,,0.00,meteohub,2014-02-19 03:10:00,
2014-02-18 22:15:00,40.6,17.6,30.10,WNW,292,0.0,0.0,39,0.00,,,0.00,meteohub,2014-02-19 03:15:00,
2014-02-18 22:20:00,40.5,17.4,30.10,WNW,292,0.0,0.0,39,0.00,,,0.00,meteohub,2014-02-19 03:20:00,
2014-02-18 22:25:00,40.3,17.2,30.10,WNW,292,0.0,0.0,39,0.00,,,0.00,meteohub,2014-02-19 03:25:00,
2014-02-18 22:30:00,39.9,16.9,30.10,WNW,292,0.0,0.0,39,0.00,,,0.00,meteohub,2014-02-19 03:30:00,
2014-02-18 22:35:00,39.9,16.9,30.10,WNW,292,0.0,0.0,39,0.00,,,0.00,meteohub,2014-02-19 03:35:00,
2014-02-18 22:40:00,40.3,17.2,30.10,WNW,292,0.0,0.0,39,0.00,,,0.00,meteohub,2014-02-19 03:40:00,
2014-02-18 22:45:00,40.6,17.6,30.10,WNW,292,0.0,2.0,39,0.00,,,0.00,meteohub,2014-02-19 03:45:00,
2014-02-18 22:50:00,40.5,17.4,30.10,WNW,292,0.0,2.0,39,0.00,,,0.00,meteohub,2014-02-19 03:50:00,
2014-02-18 22:55:00,40.3,17.2,30.10,WNW,292,0.0,2.0,39,0.00,,,0.00,meteohub,2014-02-19 03:55:00,
2014-02-18 23:00:00,40.3,17.2,30.10,WNW,292,0.0,0.0,39,0.00,,,0.00,meteohub,2014-02-19 04:00:00,
2014-02-18 23:05:00,40.1,17.1,30.10,WNW,292,0.0,0.0,39,0.00,,,0.00,meteohub,2014-02-19 04:05:00,
2014-02-18 23:10:00,40.3,17.2,30.10,WNW,292,0.0,0.0,39,0.00,,,0.00,meteohub,2014-02-19 04:10:00,
2014-02-18 23:15:00,40.3,17.2,30.10,WNW,292,0.0,0.0,39,0.00,,,0.00,meteohub,2014-02-19 04:15:00,
2014-02-18 23:20:00,40.3,17.2,30.10,WNW,292,0.0,0.0,39,0.00,,,0.00,meteohub,2014-02-19 04:20:00,
2014-02-18 23:25:00,40.5,16.9,30.07,WNW,292,0.0,0.0,38,0.00,,,0.00,meteohub,2014-02-19 04:25:00,
2014-02-18 23:30:00,41.0,17.4,30.07,WNW,292,0.0,0.0,38,0.00,,,0.00,meteohub,2014-02-19 04:30:00,
2014-02-18 23:36:00,41.4,17.1,30.07,WNW,292,0.0,0.0,37,0.00,,,0.00,meteohub,2014-02-19 04:36:00,
2014-02-18 23:41:00,41.5,17.2,30.07,WNW,292,0.0,0.0,37,0.00,,,0.00,meteohub,2014-02-19 04:41:00,
2014-02-18 23:46:00,41.9,17.6,30.07,WNW,292,0.0,0.0,37,0.00,,,0.00,meteohub,2014-02-19 04:46:00,
2014-02-18 23:51:00,42.1,17.6,30.07,WNW,292,0.0,0.0,37,0.00,,,0.00,meteohub,2014-02-19 04:51:00,
2014-02-18 23:56:00,42.3,17.8,30.07,WNW,292,0.0,3.0,37,0.00,,,0.00,meteohub,2014-02-19 04:56:00,